Location: Cisewo
(53.3833°N, 14.9000°E)
Time: 11:40:00
(UTC+00:00)

Cosmos 1633 - Pass Details

Date: 18 April 2021
Orbit: 460 x 478 km, 82.5° (Epoch: 14 May)

Event Time Altitude Azimuth Distance (km) Brightness Sun altitude
Rises 19:22:03 0° 353° (N) 2,547 6.9 -10.7°
Reaches altitude 10° 19:24:14 10° 0° (N) 1,661 5.8 -11.0°
Maximum altitude 19:27:43 43° 73° (ENE) 678 3.0 -11.4°
Enters shadow 19:30:04 18° 139° (SE) 1,222 4.0 -11.7°
